Regional Weather Roundup
Issued by NWS

Home | Current Version | Previous Version | Text Only | Print | Product List | Glossary Off
Versions: 1 2 3 4 5 6 7 8 9 10 11 12 13 14 15 16 17 18 19 20 21 22 23 24 25 26 27 28 29 30 31 32 33 34 35 36 37 38 39 40 41 42 43 44 45 46 47 48 49 50

000
ASUS43 KMKX 110920
RWRWI

WISCONSIN REGIONAL WEATHER ROUNDUP
NATIONAL WEATHER SERVICE MILWAUKEE/SULLIVAN WI
300 AM CST THU FEB 11 2016

NOTE: "FAIR" INDICATES FEW OR NO CLOUDS BELOW 12,000 FEET WITH NO
SIGNIFICANT WEATHER AND/OR OBSTRUCTIONS TO VISIBILITY.

WIZ001-002-006>008-014>016-023>028-111000-
NORTHWEST WISCONSIN

CITY           SKY/WX    TMP DP  RH WIND       PRES   REMARKS
SUPERIOR ARPT  CLOUDY    -8 -12  79 CALM      30.31R
ASHLAND        CLOUDY    -1  -4  87 W6        30.25S WCI -13
HAYWARD        CLOUDY   -16 -21  78 CALM      30.23R
SIREN          PTCLDY   -11 -17  75 CALM      30.28R
CUMBERLAND     PTCLDY    -9 -15  77 CALM      30.23S
RICE LAKE      PTCLDY    -9 -13  80 CALM      30.26R
CHETEK         PTCLDY   -10 -14  85 CALM      30.25R
LADYSMITH      CLOUDY   -13 -19  77 CALM      30.23R
EAU CLAIRE     PTCLDY    -3  -9  75 CALM      30.26R
MENOMONIE      PTCLDY    -1  -9  68 W3        30.27S
NEW RICHMOND   PTCLDY    -6 -10  83 CALM      30.27R
OSCEOLA        CLOUDY    -4  -8  82 CALM      30.31S
$$

WIZ003>005-009-010-017-018-111000-
NORTH CENTRAL WISCONSIN

CITY           SKY/WX    TMP DP  RH WIND       PRES   REMARKS
MANITOWISH WTR CLOUDY     4   0  82 NW7       30.12R WCI  -8
ARBOR VITAE    CLOUDY     4   0  81 NW3       30.12S
WOODRUFF       CLOUDY     4   0  81 NW3       30.12S
RHINELANDER    MOCLDY     0  -5  79 W9        30.12R WCI -15
EAGLE RIVER    CLOUDY     2  -3  79 W5        30.10R WCI  -7
LAND O LAKES   FLURRIES   7   2  82 N8        30.10S WCI  -6
PHILLIPS       CLOUDY   -14 -18  82 CALM      30.16S
TOMAHAWK       MOCLDY    -1  -4  84 W5        30.16R WCI -11
MEDFORD        CLOUDY    -8 -11  87 NW3       30.17R
MERRILL        PTCLDY    -3  -7  84 CALM      30.17S
$$

WIZ029-030-035-036-043>047-111000-
CENTRAL WISCONSIN

CITY           SKY/WX    TMP DP  RH WIND       PRES   REMARKS
WAUSAU         CLEAR      0  -6  76 NW8       30.17R WCI -14
MOSINEE        CLEAR      0  -4  85 CALM      30.18R
MARSHFIELD     PTCLDY    -4 -10  75 CALM      30.18R
STEVENS POINT  PTCLDY    -2  -7  80 CALM      30.20R
WAUPACA        CLEAR      3  -5  70 W6        30.22R WCI  -8
WAUTOMA        CLEAR     -4  -9  79 NW5       30.24R WCI -15
WISC RAPIDS    PTCLDY    -3  -9  75 NW6       30.23R WCI -15
CAMP DOUGLAS   CLEAR     -4  -5  96 NW3       30.24R
$$

WIZ011>013-019>022-031-037>040-048>050-111000-
NORTHEAST WISCONSIN

CITY           SKY/WX    TMP DP  RH WIND       PRES   REMARKS
ANTIGO         CLEAR     -2  -6  82 W9        30.13R WCI -18
SHAWANO        PTCLDY     3  -4  71 W6        30.20R WCI  -8
OCONTO         CLEAR     -2  -7  76 W7        30.19R WCI -15
STURGEON BAY   CLEAR      1  -8  66 W7        30.18R WCI -11
GREEN BAY      MOCLDY    -1  -7  75 W7        30.19R WCI -14
MANITOWOC      CLEAR      3  -5  69 W9        30.19R WCI -12
APPLETON       CLEAR      0  -9  65 W10       30.17R WCI -17
CLINTONVILLE   CLEAR      1  -6  71 W5        30.19S WCI  -8
OSHKOSH        PTCLDY     1  -7  68 W7        30.19S WCI -12
$$

WIZ032>034-041-042-053>061-111000-
SOUTHWEST WISCONSIN

CITY           SKY/WX    TMP DP  RH WIND       PRES   REMARKS
LA CROSSE      CLEAR      0  -6  76 CALM      30.29R
SPARTA         CLOUDY   -10 -14  83 CALM      30.27S
VIROQUA        CLEAR      1  -5  78 N3        30.21R
BOSCOBEL       CLEAR     -1  -6  79 E3        30.28R
PRAIRIE DU CHI CLEAR      7  -3  63 CALM      30.28R
PLATTEVILLE    CLEAR      5  -2  72 N6        30.22R WCI  -6
$$

WIZ056-057-062-063-064-067-068-111000-
SOUTH CENTRAL WISCONSIN

CITY           SKY/WX    TMP DP  RH WIND       PRES   REMARKS
REEDSBURG      CLEAR      1  -5  76 W3        30.24R
BARABOO/DELLS  CLEAR      0  -6  76 W3        30.23R
LONE ROCK      CLEAR     -1  -6  79 W3        30.27R
MINERAL POINT  CLEAR      5  -4  66 N6        30.20S WCI  -6
MADISON        CLEAR      4  -4  69 NW7       30.23R WCI  -8
MIDDLETON      CLEAR      5  -3  72 NW6       30.23R WCI  -6
WATERTOWN      CLEAR      4  -3  74 NW5       30.21R WCI  -6
MONROE         CLEAR      7   0  72 N7        30.20R WCI  -5
JANESVILLE     CLEAR     10   0  61 N5        30.22R WCI   2
$$

WIZ051-052-058>065-066-070>072-111000-
SOUTHEAST WISCONSIN

CITY           SKY/WX    TMP DP  RH WIND       PRES   REMARKS
MILWAUKEE      CLEAR      7  -5  57 NW10      30.20R WCI  -8
WAUKESHA       CLEAR      1  -6  71 W6        30.20R WCI -10
MILWAUKEE/TIMM CLEAR      5  -6  61 NW6       30.21S WCI  -6
RACINE         CLEAR      7  -5  57 NW9       30.21R WCI  -7
BURLINGTON     CLEAR      3  -4  70 N6        30.20R WCI  -8
KENOSHA        CLEAR      6  -3  66 NW7       30.20R WCI  -6
FOND DU LAC    PTCLDY     2  -6  69 W9        30.20R WCI -13
SHEBOYGAN      CLEAR      3  -6  66 W9        30.18R WCI -12
WEST BEND      CLEAR      3  -6  66 CALM      30.19R
JUNEAU         CLEAR      1  -6  72 NW5       30.22R WCI  -8
$$

LSZ147-162-111000-
LAKE SUPERIOR

STATION/POSITION TIME  TEMP    WIND        PRES    WAVE
                       AIR SEA DIR/SP/G            HT/PER
                 (UTC) (F)     (DEG/KT/KT) (MB)    (FT/S)
DEVILS ISLAND    0900    8     340/ 13/ 16 1026.2R
PORT WING        0800    8     310/  7/ 10 1025.1R
SAXON HARBOR     0800    7                 1023.4R
$$

LMZ867-665-643>646-111000-
LAKE MICHIGAN

STATION/POSITION TIME  TEMP    WIND        PRES    WAVE
                       AIR SEA DIR/SP/G            HT/PER
                 (UTC) (F)     (DEG/KT/KT) (MB)    (FT/S)
CHAMBERS ISLAND  0800    8     290/  8/ 14 1020.7R
ALGOMA LAKESHORE 0811          310/  2/  5   N/A
KEWAUNEE LAKESHO 0800    4     300/  6/  8 1020.4R
SHEBOYGAN LAKESH 0900    6     290/ 11/ 14 1023.9R
PORT WASHINGTON  0840    6     290/  5/  8 1023.7R
MILWAUKEE LAKESH 0810    8     340/ 11/ 18   N/A
KENOSHA   LAKESH 0900    8     320/ 10/ 14 1022.7R
$$

TC  - TEMPERATURE IN CELSIUS
VSB - VISIBILITY IN STATUTE MILES
WCI - WIND CHILL INDEX
HX  - HEAT INDEX




USA.gov is the U.S. government's official web portal to all federal, state and local government web resources and services.